Regional Weather Roundup
Issued by NWS Newport/Morehead, NC

Current Version | Previous Version | Text Only | Print | Product List | Glossary Off
Versions: 1 2 3 4 5 6 7 8 9 10 11 12 13 14 15 16 17 18 19 20 21 22 23 24 25 26 27 28 29 30 31 32 33 34 35 36 37 38 39 40 41 42 43 44 45 46 47 48 49 50
000 ASUS42 KMHX 201625 RWRMHX WEATHER ROUNDUP FOR EASTERN NORTH CAROLINA NATIONAL WEATHER SERVICE NEWPORT/MOREHEAD CITY NC 1200 PM EDT SUN MAY 20 2018 NOTE: "FAIR" INDICATES FEW OR NO CLOUDS BELOW 12,000 FEET WITH NO SIGNIFICANT WEATHER AND/OR OBSTRUCTIONS TO VISIBILITY NCZ015>017-031-032-045>047-102-103-201700- NORTH COAST CITY SKY/WX TMP DP RH WIND PRES REMARKS EDENTON FAIR 81 72 75 SW12 30.14F ELIZABETH CITY FAIR 82 74 76 S20 30.12F KITTY HAWK PTSUNNY 79 70 74 S7 30.13S MANTEO PTSUNNY 78 70 76 SW25 30.15S $$ NCZ045>047-081-094-103-104-201700- CENTRAL COAST CITY SKY/WX TMP DP RH WIND PRES REMARKS FRISCO CLOUDY 79 71 76 SW10 30.18F $$ NCZ095-097-098-100-101-201700- SOUTHERN COAST CITY SKY/WX TMP DP RH WIND PRES REMARKS BEAUFORT CLOUDY 76 72 87 SW13 30.18S CEDAR ISLAND NOT AVBL JACKSONVILLE CLOUDY 79 73 82 S9 30.16S PINEY ISLAND NOT AVBL WILMINGTON CLOUDY 77 70 79 SW14 30.17S $$ NCZ011>013-027>030-043-044-078>080-089-090>093-098-201700- COASTAL PLAIN CITY SKY/WX TMP DP RH WIND PRES REMARKS AHOSKIE CLOUDY 79 73 81 CALM 30.13S CLINTON PTSUNNY 79 71 77 SW5 30.16S ELIZABETHTOWN PTSUNNY 80 70 71 W9 30.17R GOLDSBORO CLOUDY N/A N/A N/A SW8 30.15S GREENVILLE FAIR 81 72 74 W7 30.15S HAVELOCK NOT AVBL KENANSVILLE CLOUDY 79 70 73 SW5 30.16S KINSTON CLOUDY 79 70 73 SW7 30.14F NEW BERN FAIR 79 70 74 S8 30.16F RICHLANDS CLOUDY 79 72 78 S9 30.16F ROCKY MOUNT CLOUDY 77 70 79 SW10 30.14F WASHINGTON PTSUNNY 81 70 69 S3 30.14F WHITEVILLE FAIR 81 70 69 SW8 30.16S $$ AMZ130-135-150-152-154-156-158-170-250-252-270-ANZ085-086-088-633-658-670-201700- MARINE OBSERVATIONS STATION/POSITION TIME TEMP WIND PRES WAVE SWELL AIR SEA DIR/SP/G HT/PER HT/PER (UTC) (F) (DEG/KT/KT) (MB) (FT/S) (FT/S) CHESAPEAKE LIGHT NOT AVBL 64 E VA BEACH 1550 70 66 200/ 14/ 17 1020.6 5/ 7 3/ 8 DUCK 1600 78 57 220/ 14/ 17 1020.1 2 E DUCK 1600 61 N/A 3/ 8 OREGON INLET 1600 77 76 190/ 22/ 26 1021.0 13E OREGON INLT 1548 65 N/A 5/ 7 2/ 8 HATTERAS CG 1600 78 75 200/ 6/ 11 1021.6 DIAMOND BUOY 1600 78 76 210/ 19/ 23 1022.5 CAPE LOOKOUT 1600 210/ 12/ 14 1022.3 BEAUFORT LAB 1600 76 76 210/ 9/ 13 1022.1 30 SE NEW RVR IN 1608 75 210/ 10/ 14 1022.0 30 SE NEW RVR IN 1600 76 N/A 7/ 7 2/11 27 SE WRIGHTSVLE 1608 73 74 220/ 14/ 23 1022.2 5 SE WRIGHTSVLE NOT AVBL 225 S CAPE HAT 1610 77 160/ 14/ 16 1024.2 41 SE CHARLESTON 1600 75 190/ 14/ 17 1022.6 $$

USA.gov is the U.S. government's official web portal to all federal, state and local government web resources and services.